FW8306 Weather Reports


time (UTC)temp
F
wind
direction
speed
knots
gust
knots
rain 1hr
in
rain 24hr
in
rain mn
in
humidity
%
barometer
mb
20260509214600 46 0.0 0.0 0.00 0.00 0.00 77 1021.6
20260509213122 46 0.0 0.0 0.00 0.00 0.00 78 1021.5
20260509211553 45 0.0 0.0 0.00 0.00 0.00 75 1021.5
20260509210104 46 0.0 0.0 0.00 0.00 0.00 73 1021.7
20260509204549 47 0.0 0.0 0.00 0.00 0.00 70 1021.7
20260509203054 48 0.0 0.0 0.00 0.00 0.00 68 1021.7
20260509201552 49 0.0 0.0 0.00 0.00 0.00 66 1021.7
20260509200100 50 0.0 0.0 0.00 0.00 0.00 64 1021.7
20260509194556 50 0.0 0.0 0.00 0.00 0.00 63 1021.7
20260509193055 51 0.0 0.0 0.00 0.00 0.00 63 1021.8
20260509191551 51 0.0 0.0 0.00 0.00 0.00 63 1021.7
20260509190052 52 0.0 0.0 0.00 0.00 0.00 63 1021.6
20260509184554 52 0.0 0.0 0.00 0.00 0.00 62 1021.6
20260509183051 53 0.0 0.0 0.00 0.00 0.00 63 1021.7
20260509181558 54 0.0 0.0 0.00 0.00 0.00 64 1021.6
20260509180054 54 0.0 0.0 0.00 0.00 0.00 59 1021.8
20260509174549 55 0.0 0.0 0.00 0.00 0.00 55 1021.7
20260509173058 55 0.0 0.0 0.00 0.00 0.00 53 1021.7
20260509171556 56 0.0 0.0 0.00 0.00 0.00 55 1021.8
20260509170058 56 0.0 0.0 0.00 0.00 0.00 53 1021.9
20260509164559 56 0.0 0.0 0.00 0.00 0.00 53 1021.8
20260509163101 57 0.0 0.0 0.00 0.00 0.00 52 1021.9
20260509161608 57 0.0 0.0 0.00 0.00 0.00 47 1022.0
20260509160052 58 0.0 0.0 0.00 0.00 0.00 45 1022.2
20260509154614 59 0.0 0.0 0.00 0.00 0.00 45 1022.3
20260509153103 60 0.0 0.0 0.00 0.00 0.00 43 1022.3
20260509151557 60 0.0 0.0 0.00 0.00 0.00 42 1022.4
20260509150055 60 0.0 0.0 0.00 0.00 0.00 39 1022.6
20260509144601 60 0.0 0.0 0.00 0.00 0.00 38 1022.6
20260509143056 61 0.0 0.0 0.00 0.00 0.00 40 1022.8
20260509141556 61 0.0 0.0 0.00 0.00 0.00 38 1022.9
20260509140104 61 0.0 0.0 0.00 0.00 0.00 39 1023.0
20260509134552 61 0.0 0.0 0.00 0.00 0.00 41 1023.2
20260509133056 61 0.0 0.0 0.00 0.00 0.00 42 1023.5
20260509131554 62 0.0 0.0 0.00 0.00 0.00 40 1023.7
20260509130051 62 0.0 0.0 0.00 0.00 0.00 41 1023.7
20260509124549 62 0.0 0.0 0.00 0.00 0.00 38 1023.8
20260509123056 63 0.0 0.0 0.00 0.00 0.00 40 1024.2
20260509121605 63 0.0 0.0 0.00 0.00 0.00 37 1024.3
20260509120112 63 0.0 0.0 0.00 0.00 0.00 39 1024.2
20260509114554 63 0.0 0.0 0.00 0.00 0.00 37 1024.3
20260509113057 62 0.0 0.0 0.00 0.00 0.00 37 1024.3
20260509111556 62 0.0 0.0 0.00 0.00 0.00 37 1024.3
20260509110054 60 0.0 0.0 0.00 0.00 0.00 36 1024.4
20260509104548 60 0.0 0.0 0.00 0.00 0.00 36 1024.5
20260509103053 59 0.0 0.0 0.00 0.00 0.00 35 1024.6
20260509101554 60 0.0 0.0 0.00 0.00 0.00 35 1024.7
20260509100053 59 0.0 0.0 0.00 0.00 0.00 39 1024.6
20260509094551 58 0.0 0.0 0.00 0.00 0.00 41 1024.5
20260509093048 58 0.0 0.0 0.00 0.00 0.00 40 1024.7
20260509091622 56 0.0 0.0 0.00 0.00 0.00 43 1024.8
20260509090055 56 0.0 0.0 0.00 0.00 0.00 43 1024.8
20260509084554 56 0.0 0.0 0.00 0.00 0.00 43 1024.6
20260509083054 55 0.0 0.0 0.00 0.00 0.00 46 1024.9
20260509081549 55 0.0 0.0 0.00 0.00 0.00 46 1025.0
20260509080117 55 0.0 0.0 0.00 0.00 0.00 46 1024.9
20260509074554 55 0.0 0.0 0.00 0.00 0.00 49 1024.9
20260509073138 54 0.0 0.0 0.00 0.00 0.00 48 1025.0
20260509071551 54 0.0 0.0 0.00 0.00 0.00 51 1025.1
20260509070100 51 0.0 0.0 0.00 0.00 0.00 53 1025.2
20260509064554 51 0.0 0.0 0.00 0.00 0.00 55 1025.2
20260509063051 50 0.0 0.0 0.00 0.00 0.00 56 1025.3
20260509061558 49 0.0 0.0 0.00 0.00 0.00 57 1025.2
20260509054611 47 0.0 0.0 0.00 0.00 0.00 61 1025.3
20260509053058 47 0.0 0.0 0.00 0.00 0.00 66 1025.4
20260509051556 45 0.0 0.0 0.00 0.00 0.00 72 1025.4
20260509050057 42 0.0 0.0 0.00 0.00 0.00 80 1025.5
20260509044550 39 0.0 0.0 0.00 0.00 0.00 82 1025.4
20260509043050 38 0.0 0.0 0.00 0.00 0.00 82 1025.3
20260509041553 36 0.0 0.0 0.00 0.00 0.00 83 1025.4
20260509040124 36 0.0 0.0 0.00 0.00 0.00 83 1025.4
20260509034556 36 0.0 0.0 0.00 0.00 0.00 82 1025.5
20260509033054 35 0.0 0.0 0.00 0.00 0.00 82 1025.5
20260509031600 35 0.0 0.0 0.00 0.00 0.00 81 1025.4
20260509030054 36 0.0 0.0 0.00 0.00 0.00 81 1025.5
20260509024555 36 0.0 0.0 0.00 0.00 0.00 80 1025.5
20260509023056 37 0.0 0.0 0.00 0.00 0.00 79 1025.4
20260509021553 37 0.0 0.0 0.00 0.00 0.00 78 1025.6
20260509020052 37 0.0 0.0 0.00 0.00 0.00 77 1025.8
20260509014550 38 0.0 0.0 0.00 0.00 0.00 76 1026.0
20260509013056 38 0.0 0.0 0.00 0.00 0.00 75 1026.0
20260509011558 39 0.0 0.0 0.00 0.00 0.00 74 1025.9
20260509010059 40 0.0 0.0 0.00 0.00 0.00 73 1025.9
20260509004606 40 0.0 0.0 0.00 0.00 0.00 71 1026.0
20260509003054 41 0.0 0.0 0.00 0.00 0.00 68 1026.0
20260509001556 42 0.0 0.0 0.00 0.00 0.00 66 1026.3
20260509000101 43 0.0 0.0 0.00 0.00 0.00 64 1026.2
20260508234556 44 0.0 0.0 0.00 0.00 0.00 61 1026.4
20260508233053 45 0.0 0.0 0.00 0.00 0.00 59 1026.4
20260508231556 46 0.0 0.0 0.00 0.00 0.00 58 1026.3
20260508230101 46 0.0 0.0 0.00 0.00 0.00 55 1026.3
20260508224555 47 0.0 0.0 0.00 0.00 0.00 53 1026.4
20260508223054 47 0.0 0.0 0.00 0.00 0.00 51 1026.4
20260508221552 47 0.0 0.0 0.00 0.00 0.00 49 1026.4
20260508220100 47 0.0 0.0 0.00 0.00 0.00 46 1026.3